Location: Haliburton Scout Reserve
(45.0900°N, 78.3200°W)
Time: 01:17:27
(UTC-04:00)

DIWATA 2B (PO-101) - Pass Details

Date: 19 May 2022
Orbit: 585 x 597 km, 98.0° (Epoch: 27 June)

Event Time Altitude Azimuth Distance (km) Brightness Sun altitude
Exits shadow 04:29:53 10° 262° (W) 1,919 ? -10.8°
Maximum altitude 04:30:34 10° 272° (W) 1,898 ? -10.7°
Drops below altitude 10° 04:31:06 10° 279° (W) 1,913 ? -10.6°
Sets 04:35:30 0° 324° (NW) 2,825 ? -10.0°
